NFNANLWW

Guest
Details From NFNA - Nausori Intl
To NLWW - WALLIS
Flight Number -
Tags generated
Created
Modified
Stats Distance 434 nm / 803 km
Max Altitude 35,000 ft / 10,668 m
Waypoints 5
Social Downloads 2
Likes 0
Share VATSIM

Download

Looking for another format? Having issues loading an existing format? Contact us
Advertisement - Login to hide

Notes

Basic altitude profile: - Ascent Rate: 2500ft/min - Ascent Speed: 250kts - Cruise Altitude: 35000ft - Cruise Speed: 420kts - Descent Rate: 1500ft/min - Descent Speed: 250kts Options: - Use NATs: yes - Use PACOTS: yes - Use low airways: no - Use high airways: yes

Route

NFNA PACKO B577 HOI NLWW

ID Type Via Altitude Latitude Longitude Leg Dist Tot Dist Heading (true) Name
O NFNA APT - 0 ft / 0 m -18.04333˚ 178.55925˚ - 0 nm - Nausori Intl
PACKO FIX - 27,800 ft / 8,473 m -16.78333˚ 178.88833˚ 77 nm 77 nm 14° / 14° -
PARZO FIX B577 (AWY-HI) 35,000 ft / 10,668 m -15.00000˚ -178.58833˚ 180 nm 258 nm 54° / 53° -
HOI VOR B577 (AWY-HI) 19,000 ft / 5,791 m -13.23958˚ -176.20181˚ 174 nm 433 nm 53° / 52° WALLIS VOR-DME
O NLWW APT - 0 ft / 0 m -13.23832˚ -176.19927˚ 0 nm 433 nm 63° / 63° WALLIS

Altitude Profile

Advertisement - Login to hide

Weather


0- 5 10 15 20 25 30 35+ Temperature / ° C

Clouds and Precipitation
Forecast for 2018-05-22 06:00 UTC. Updated 2 hours ago

Ground ~20,000 ft ~40,000 ft Winds

NFNA

Details ICAO NFNA (SUV)
Name Nausori Intl
Region Fiji and Tonga
Timezone Pacific/Fiji (UTC+12.0)
Stats Elevation 17 ft / 5 m (AMSL)
Location -18.043328° 178.559247°
Runways 1
Magnetic Variation 12.546° E

METAR

NFNA 220700Z 10002KT 9999 SCT020 26/24 Q1013

Decode

TAF

TAF NFNA 220521Z 2206/2306 08007KT 9999 SCT?020

Decode

Departure Runways

ID Width Length Bearing (true) Bearing (mag) Surface Threshold Offset Overrun Length
10 98 ft / 30 m 6,130 ft / 1,869 m 109.30° 96.75° Asphalt 404 ft / 123 m 0 ft / 0 m
28 98 ft / 30 m 6,130 ft / 1,869 m 289.30° 276.75° Asphalt 0 ft / 0 m 295 ft / 90 m

NLWW

Details ICAO NLWW (WLS)
Name WALLIS
Region Wallis and Futuna
Timezone Unknown (UTC+0.0)
Stats Elevation 79 ft / 24 m (AMSL)
Location -13.238320° -176.199267°
Runways 1
Magnetic Variation 11.543° E

METAR

Not found

TAF

TAF NLWW 220500Z 2206/2306 14006KT 9999 FEW023 PROB30 TEMPO 2216/2303 4500 SHRA

Decode

Destination Runways

ID Width Length Bearing (true) Bearing (mag) Surface Threshold Offset Overrun Length
08 148 ft / 45 m 6,895 ft / 2,102 m 89.90° 78.36° Asphalt 0 ft / 0 m 0 ft / 0 m
26 148 ft / 45 m 6,895 ft / 2,102 m 269.90° 258.36° Asphalt 0 ft / 0 m 0 ft / 0 m